星链-3780 (STARLINK-3780 )

导读 | 豆包AI

STARLINK-3780是美国太空探索技术公司SpaceX于2022年4月21日发射的星链卫星,隶属于星链(Starlink)项目。该项目由马斯克于2015年提出,计划在近地轨道部署超4万颗卫星,旨在为全球尤其是传统网络覆盖不足区域提供高速互联网接入服务。作为星链星座的组成部分,它与数千颗同系列卫星组网,共同支撑全球卫星互联网服务,目前星链已拥有数百万用户,还拓展了蜂窝通信、军事应用等方向。

基本信息
目录编号:
52278
目录名称:
STARLINK-3780
国际标识:
2022-041T
轨道中心:
EARTH
卫星名称:
星链-3780
卫星全名:
星链-3780 (STARLINK-3780 )
卫星状态:
在轨 (已飞行1470 天)
发射日期:
2022-04-21 UTC
国别 :
美国 (US)
星等 :
--
轨道信息
数据来源 国际轨道数据
星历时间: 2026-04-30T22:23:59+0800
8小时前
查看轨道信息
半长轴: 6917.887km
偏心率: 0.000108
轨道倾角: 53.217°
近地点辐角 91.056°
升交点赤经 236.082°
平近点角 269.056°
近地点: 539.002km
远地点: 540.498km
周期: 95.438分钟
每日圈数: 15.08838
详细信息
固有亮度:
5
最大亮度:
2.5
卫星平台:
Starlink v1.5
覆盖范围:
全球
运营商:
太空探索技术公司
运营商所在国:
美国
制造商(研发单位):
太空探索技术公司
制造商所在国:
美国
使用方式:
暂无
卫星简介
星链(Starlink)计划是由太空探索技术公司(SpaceX)提出的一个巨型低轨卫星互联网星座项目,计划在2019年至2024年间在太空搭建由约1.2万颗卫星组成的“星链”网络,其中1584颗将部署在地球上空550千米处的近地轨道,并从2020年开始工作。该卫星仍在工作。
2D轨道图
3D轨道图
轨道高度分析图
轨道倾角分析图
轨道综合分析图
查看轨道综合分析图